Location: Newark
(47.7394°N, 8.0008°E)
Time: 06:53:57
(UTC+00:00)

N. Korean satellite - Pass Details

Date: 19 December 2019
Orbit: 454 x 507 km, 97.2° (Epoch: 27 January)

Event Time Altitude Azimuth Distance (km) Brightness Sun altitude
Rises 04:17:52 0° 31° (NNE) 2,514 10.5 -28.1°
Reaches altitude 10° 04:20:50 10° 59° (ENE) 1,620 9.9 -27.6°
Maximum altitude 04:22:36 13° 90° (E) 1,416 9.8 -27.4°
Drops below altitude 10° 04:24:21 10° 121° (ESE) 1,602 10.0 -27.1°
Sets 04:27:14 0° 149° (SSE) 2,463 10.6 -26.6°
